Location: Allos
(44.2333°N, 6.6333°E)
Time: 13:12:31
(UTC+00:00)

USA 238 - Pass Details

Date: 01 December 2020
Orbit: 996 x 1216 km, 63.4° (Epoch: 22 January)

Event Time Altitude Azimuth Distance (km) Brightness Sun altitude
Rises 18:50:52 0° 229° (SW) 3,721 7.2 -30.7°
Reaches altitude 10° 18:53:27 10° 233° (SW) 2,789 6.5 -31.1°
Maximum altitude 18:59:55 60° 312° (NW) 1,180 4.0 -32.3°
Enters shadow 19:00:42 57° 342° (NNW) 1,224 3.9 -32.4°
